Regional Weather Roundup
Issued by NWS Newport/Morehead, NC

Current Version | Previous Version | Graphics & Text | Print | Product List | Glossary Off
Versions: 1 2 3 4 5 6 7 8 9 10 11 12 13 14 15 16 17 18 19 20 21 22 23 24 25 26 27 28 29 30 31 32 33 34 35 36 37 38 39 40 41 42 43 44 45 46 47 48 49 50

000
ASUS42 KMHX 280025
RWRMHX
WEATHER ROUNDUP FOR EASTERN NORTH CAROLINA
NATIONAL WEATHER SERVICE NEWPORT/MOREHEAD CITY NC
800 PM EDT SAT AUG 27 2016

NOTE: "FAIR" INDICATES FEW OR NO CLOUDS BELOW 12,000 FEET
WITH NO SIGNIFICANT WEATHER AND/OR OBSTRUCTIONS TO VISIBILITY

NCZ015>017-031-032-045>047-102-103-280100-
NORTH COAST

CITY           SKY/WX    TMP DP  RH WIND       PRES   REMARKS
EDENTON        CLEAR     82  71  69 NE5       30.10R
ELIZABETH CITY CLEAR     81  74  79 NE12      30.10R
KITTY HAWK     PTCLDY    80  80 100 NE6       30.09R
MANTEO         CLOUDY    80  79  96 E12       30.09S

$$

NCZ045>047-081-094-103-104-280100-
CENTRAL COAST

CITY           SKY/WX    TMP DP  RH WIND       PRES   REMARKS
FRISCO         CLEAR     81  77  88 NE5       30.07R

$$

NCZ095-097-098-100-101-280100-
SOUTHERN COAST

CITY           SKY/WX    TMP DP  RH WIND       PRES   REMARKS
BEAUFORT       CLEAR     82  76  81 E3        30.06R
CEDAR ISLAND   NOT AVBL
JACKSONVILLE   CLEAR     81  74  79 SW3       30.06R
PINEY ISLAND   NOT AVBL
WILMINGTON     CLEAR     82  74  76 SE5       30.06R


$$

NCZ011>013-027>030-043-044-078>080-089-090>093-098-280100-
COASTAL PLAIN

CITY           SKY/WX    TMP DP  RH WIND       PRES   REMARKS
AHOSKIE        CLEAR     82  71  70 N3        30.11R
CLINTON        PTCLDY    80  77  91 CALM      30.08R
ELIZABETHTOWN  MOCLDY    85  74  70 SE3       30.07R
GOLDSBORO      PTCLDY    84  78  81 E10       30.06R
GREENVILLE     CLEAR     86  72  62 E3        30.09R
HAVELOCK       PTCLDY    82  75  79 CALM      30.08R
KENANSVILLE    CLOUDY    79  75  89 SE5       30.08R
KINSTON        MOCLDY    86  72  62 SE5       30.09
NEW BERN       PTCLDY    83  74  74 E6        30.08R
RICHLANDS      CLOUDY    79  77  94 CALM      30.09R FOG
ROCKY MOUNT    CLEAR     84  70  62 NE3       30.09R
WASHINGTON     CLEAR     81  71  71 E3        30.08R
WHITEVILLE     PTCLDY    83  74  74 S6        30.06R

$$

AMZ130-135-150-152-154-156-158-170-250-252-270-ANZ085-086-088-633-658-670-280100-
MARINE OBSERVATIONS

STATION/POSITION TIME  TEMP    WIND        PRES    WAVE   SWELL
                       AIR SEA DIR/SP/G            HT/PER HT/PER
                 (UTC) (F)     (DEG/KT/KT) (MB)    (FT/S) (FT/S)
CHESAPEAKE LIGHT NOT AVBL
64 E VA BEACH    2350   80 81   40/ 14/ 17 1018.9    3/ 9   2/ 9
DUCK             2300   80 80   40/ 13/ 15 1018.1
2 E DUCK         2311      79                N/A     3/ 9
OREGON INLET     2300   81 82   40/  9/ 12 1018.3
13E OREGON INLT  0000      82                N/A     3/ 9   3/ 9
HATTERAS CG      2300   83 84   70/  7/ 10 1017.8
DIAMOND BUOY     2350   83 85   40/  8/ 10 1018.0    3/ 9   3/ 9
CAPE LOOKOUT     0000   82      80/ 11/ 12 1017.6
BEAUFORT LAB     2300   84 82  100/  7/  9 1017.1
30 SE NEW RVR IN 0008   83 85  110/  8/ 12 1017.8
30 SE NEW RVR IN 2325      85                N/A     3/ 9
27 SE WRIGHTSVLE 0008   83 85  110/  6/ 10 1017.8
5 SE WRIGHTSVLE  2308   83 84  140/  6/ 10 1018.2
225 S CAPE HAT   2350   83 84   70/ 12/ 16 1016.2    4/ 9   3/ 9
41 SE CHARLESTON 2350   84 84   70/ 10/ 14 1016.6    4/10   3/10

$$




USA.gov is the U.S. government's official web portal to all federal, state and local government web resources and services.